owner,sensor,date,latitude,longitude,vertical_datum,mass_concentration_of_oxygen_in_sea_water,qcFlag 
SCCF RECON,ioos:station:SCCF:16:1,2009-01-01T00:00:00Z,26.4345,-81.9647,2.314,6.96,1111122 
SCCF RECON,ioos:station:SCCF:16:1,2009-01-01T01:00:00Z,26.4345,-81.9647,2.265,6.98,1111122 
SCCF RECON,ioos:station:SCCF:16:1,2009-01-01T02:00:00Z,26.4345,-81.9647,2.268,6.99,1111122 
SCCF RECON,ioos:station:SCCF:16:1,2009-01-01T03:00:00Z,26.4345,-81.9647,2.314,6.93,1111122 
SCCF RECON,ioos:station:SCCF:16:1,2009-01-01T04:00:00Z,26.4345,-81.9647,2.419,6.91,1111122 
SCCF RECON,ioos:station:SCCF:16:1,2009-01-01T05:00:00Z,26.4345,-81.9647,2.561,7.01,1111122 
SCCF RECON,ioos:station:SCCF:16:1,2009-01-01T06:00:00Z,26.4345,-81.9647,2.558,7.06,1111122 
SCCF RECON,ioos:station:SCCF:16:1,2009-01-01T07:00:00Z,26.4345,-81.9647,2.546,6.87,1111122 
SCCF RECON,ioos:station:SCCF:16:1,2009-01-01T08:00:00Z,26.4345,-81.9647,2.531,6.78,1111122 
SCCF RECON,ioos:station:SCCF:16:1,2009-01-01T09:00:00Z,26.4345,-81.9647,2.458,6.74,1111122 
SCCF RECON,ioos:station:SCCF:16:1,2009-01-01T10:00:00Z,26.4345,-81.9647,2.333,6.76,1111122 
SCCF RECON,ioos:station:SCCF:16:1,2009-01-01T11:00:00Z,26.4345,-81.9647,2.161,6.64,1111122 
SCCF RECON,ioos:station:SCCF:16:1,2009-01-01T12:00:00Z,26.4345,-81.9647,2.033,6.48,1111122 
SCCF RECON,ioos:station:SCCF:16:1,2009-01-01T13:00:00Z,26.4345,-81.9647,1.935,6.35,1111122 
SCCF RECON,ioos:station:SCCF:16:1,2009-01-01T14:00:00Z,26.4345,-81.9647,1.874,6.39,1111122 
SCCF RECON,ioos:station:SCCF:16:1,2009-01-01T15:00:00Z,26.4345,-81.9647,1.935,6.45,1111122 
SCCF RECON,ioos:station:SCCF:16:1,2009-01-01T16:00:00Z,26.4345,-81.9647,2.107,6.4,1111122 
SCCF RECON,ioos:station:SCCF:16:1,2009-01-01T17:00:00Z,26.4345,-81.9647,2.277,6.5,1111122 
SCCF RECON,ioos:station:SCCF:16:1,2009-01-01T18:00:00Z,26.4345,-81.9647,2.424,6.68,1111122 
SCCF RECON,ioos:station:SCCF:16:1,2009-01-01T19:00:00Z,26.4345,-81.9647,2.498,6.81,1111122 
SCCF RECON,ioos:station:SCCF:16:1,2009-01-01T20:00:00Z,26.4345,-81.9647,2.549,6.86,1111122 
SCCF RECON,ioos:station:SCCF:16:1,2009-01-01T21:00:00Z,26.4345,-81.9647,2.589,6.98,1111122 
SCCF RECON,ioos:station:SCCF:16:1,2009-01-01T22:00:00Z,26.4345,-81.9647,2.612,7.04,1111122 
SCCF RECON,ioos:station:SCCF:16:1,2009-01-01T23:00:00Z,26.4345,-81.9647,2.531,7.04,1111122 
SCCF RECON,ioos:station:SCCF:16:1,2009-01-02T00:00:00Z,26.4345,-81.9647,2.413,6.92,1111122 
SCCF RECON,ioos:station:SCCF:16:1,2009-01-02T01:00:00Z,26.4345,-81.9647,2.331,6.83,1111122 
SCCF RECON,ioos:station:SCCF:16:1,2009-01-02T02:00:00Z,26.4345,-81.9647,2.26,6.72,1111122 
SCCF RECON,ioos:station:SCCF:16:1,2009-01-02T03:00:00Z,26.4345,-81.9647,2.223,6.63,1111122 
SCCF RECON,ioos:station:SCCF:16:1,2009-01-02T04:00:00Z,26.4345,-81.9647,2.288,6.4,1111122 
SCCF RECON,ioos:station:SCCF:16:1,2009-01-02T05:00:00Z,26.4345,-81.9647,2.373,6.59,1111122 
SCCF RECON,ioos:station:SCCF:16:1,2009-01-02T06:00:00Z,26.4345,-81.9647,2.498,6.75,1111122 
SCCF RECON,ioos:station:SCCF:16:1,2009-01-02T07:00:00Z,26.4345,-81.9647,2.551,6.82,1111122 
SCCF RECON,ioos:station:SCCF:16:1,2009-01-02T08:00:00Z,26.4345,-81.9647,2.621,6.74,1111122 
SCCF RECON,ioos:station:SCCF:16:1,2009-01-02T09:00:00Z,26.4345,-81.9647,2.625,6.7,1111122 
SCCF RECON,ioos:station:SCCF:16:1,2009-01-02T10:00:00Z,26.4345,-81.9647,2.548,6.61,1111122 
SCCF RECON,ioos:station:SCCF:16:1,2009-01-02T11:00:00Z,26.4345,-81.9647,2.442,6.55,1111122 
SCCF RECON,ioos:station:SCCF:16:1,2009-01-02T12:00:00Z,26.4345,-81.9647,2.325,6.52,1111122 
SCCF RECON,ioos:station:SCCF:16:1,2009-01-02T13:00:00Z,26.4345,-81.9647,2.231,6.57,1111122 
SCCF RECON,ioos:station:SCCF:16:1,2009-01-02T14:00:00Z,26.4345,-81.9647,2.172,6.54,1111122 
SCCF RECON,ioos:station:SCCF:16:1,2009-01-02T15:00:00Z,26.4345,-81.9647,2.129,6.49,1111122 
SCCF RECON,ioos:station:SCCF:16:1,2009-01-02T16:00:00Z,26.4345,-81.9647,2.162,6.49,1111122 
SCCF RECON,ioos:station:SCCF:16:1,2009-01-02T17:00:00Z,26.4345,-81.9647,2.286,6.52,1111122 
SCCF RECON,ioos:station:SCCF:16:1,2009-01-02T18:00:00Z,26.4345,-81.9647,2.44,6.66,1111122 
SCCF RECON,ioos:station:SCCF:16:1,2009-01-02T19:00:00Z,26.4345,-81.9647,2.533,6.79,1111122 
SCCF RECON,ioos:station:SCCF:16:1,2009-01-02T20:00:00Z,26.4345,-81.9647,2.576,6.91,1111122 
SCCF RECON,ioos:station:SCCF:16:1,2009-01-02T21:00:00Z,26.4345,-81.9647,2.61,6.95,1111122 
SCCF RECON,ioos:station:SCCF:16:1,2009-01-02T22:00:00Z,26.4345,-81.9647,2.611,6.93,1111122 
SCCF RECON,ioos:station:SCCF:16:1,2009-01-02T23:00:00Z,26.4345,-81.9647,2.549,6.94,1111122 
SCCF RECON,ioos:station:SCCF:16:1,2009-01-03T00:00:00Z,26.4345,-81.9647,2.471,6.83,1111122 
SCCF RECON,ioos:station:SCCF:16:1,2009-01-03T01:00:00Z,26.4345,-81.9647,2.373,6.82,1111122 
SCCF RECON,ioos:station:SCCF:16:1,2009-01-03T02:00:00Z,26.4345,-81.9647,2.296,6.78,1111122 
SCCF RECON,ioos:station:SCCF:16:1,2009-01-03T03:00:00Z,26.4345,-81.9647,2.224,6.74,1111122 
SCCF RECON,ioos:station:SCCF:16:1,2009-01-03T04:00:00Z,26.4345,-81.9647,2.217,6.66,1111122 
SCCF RECON,ioos:station:SCCF:16:1,2009-01-03T05:00:00Z,26.4345,-81.9647,2.284,6.51,1111122 
SCCF RECON,ioos:station:SCCF:16:1,2009-01-03T06:00:00Z,26.4345,-81.9647,2.372,6.46,1111122 
SCCF RECON,ioos:station:SCCF:16:1,2009-01-03T07:00:00Z,26.4345,-81.9647,2.46,6.45,1111122 
SCCF RECON,ioos:station:SCCF:16:1,2009-01-03T08:00:00Z,26.4345,-81.9647,2.523,6.54,1111122 
SCCF RECON,ioos:station:SCCF:16:1,2009-01-03T09:00:00Z,26.4345,-81.9647,2.558,6.64,1111122 
SCCF RECON,ioos:station:SCCF:16:1,2009-01-03T10:00:00Z,26.4345,-81.9647,2.555,6.59,1111122 
SCCF RECON,ioos:station:SCCF:16:1,2009-01-03T11:00:00Z,26.4345,-81.9647,2.492,6.64,1111122 
SCCF RECON,ioos:station:SCCF:16:1,2009-01-03T12:00:00Z,26.4345,-81.9647,2.436,6.54,1111122 
SCCF RECON,ioos:station:SCCF:16:1,2009-01-03T13:00:00Z,26.4345,-81.9647,2.35,6.53,1111122 
SCCF RECON,ioos:station:SCCF:16:1,2009-01-03T14:00:00Z,26.4345,-81.9647,2.273,6.49,1111122 
SCCF RECON,ioos:station:SCCF:16:1,2009-01-03T15:00:00Z,26.4345,-81.9647,2.215,6.5,1111122 
SCCF RECON,ioos:station:SCCF:16:1,2009-01-03T16:00:00Z,26.4345,-81.9647,2.229,6.42,1111122 
SCCF RECON,ioos:station:SCCF:16:1,2009-01-03T17:00:00Z,26.4345,-81.9647,2.269,6.48,1111122 
SCCF RECON,ioos:station:SCCF:16:1,2009-01-03T18:00:00Z,26.4345,-81.9647,2.393,6.52,1111122 
SCCF RECON,ioos:station:SCCF:16:1,2009-01-03T19:00:00Z,26.4345,-81.9647,2.517,6.64,1111122 
SCCF RECON,ioos:station:SCCF:16:1,2009-01-03T20:00:00Z,26.4345,-81.9647,2.587,6.83,1111122 
SCCF RECON,ioos:station:SCCF:16:1,2009-01-03T21:00:00Z,26.4345,-81.9647,2.66,6.93,1111122 
SCCF RECON,ioos:station:SCCF:16:1,2009-01-03T22:00:00Z,26.4345,-81.9647,2.689,7.01,1111122 
SCCF RECON,ioos:station:SCCF:16:1,2009-01-03T23:00:00Z,26.4345,-81.9647,2.663,7.03,1111122 
SCCF RECON,ioos:station:SCCF:16:1,2009-01-04T00:00:00Z,26.4345,-81.9647,2.579,6.91,1111122 
SCCF RECON,ioos:station:SCCF:16:1,2009-01-04T01:00:00Z,26.4345,-81.9647,2.462,6.92,1111122 
SCCF RECON,ioos:station:SCCF:16:1,2009-01-04T02:00:00Z,26.4345,-81.9647,2.342,6.77,1111122 
SCCF RECON,ioos:station:SCCF:16:1,2009-01-04T03:00:00Z,26.4345,-81.9647,2.255,6.63,1111122 
SCCF RECON,ioos:station:SCCF:16:1,2009-01-04T04:00:00Z,26.4345,-81.9647,2.179,6.59,1111122 
SCCF RECON,ioos:station:SCCF:16:1,2009-01-04T05:00:00Z,26.4345,-81.9647,2.144,6.45,1111122 
SCCF RECON,ioos:station:SCCF:16:1,2009-01-04T06:00:00Z,26.4345,-81.9647,2.175,6.34,1111122 
SCCF RECON,ioos:station:SCCF:16:1,2009-01-04T07:00:00Z,26.4345,-81.9647,2.246,6.39,1111122 
SCCF RECON,ioos:station:SCCF:16:1,2009-01-04T08:00:00Z,26.4345,-81.9647,2.345,6.45,1111122 
SCCF RECON,ioos:station:SCCF:16:1,2009-01-04T09:00:00Z,26.4345,-81.9647,2.414,6.34,1111122 
SCCF RECON,ioos:station:SCCF:16:1,2009-01-04T10:00:00Z,26.4345,-81.9647,2.47,6.41,1111122 
SCCF RECON,ioos:station:SCCF:16:1,2009-01-04T11:00:00Z,26.4345,-81.9647,2.491,6.5,1111122 
SCCF RECON,ioos:station:SCCF:16:1,2009-01-04T12:00:00Z,26.4345,-81.9647,2.46,6.49,1111122 
SCCF RECON,ioos:station:SCCF:16:1,2009-01-04T13:00:00Z,26.4345,-81.9647,2.42,6.48,1111122 
SCCF RECON,ioos:station:SCCF:16:1,2009-01-04T14:00:00Z,26.4345,-81.9647,2.344,6.46,1111122 
SCCF RECON,ioos:station:SCCF:16:1,2009-01-04T15:00:00Z,26.4345,-81.9647,2.294,6.51,1111122 
SCCF RECON,ioos:station:SCCF:16:1,2009-01-04T16:00:00Z,26.4345,-81.9647,2.29,6.51,1111122 
SCCF RECON,ioos:station:SCCF:16:1,2009-01-04T17:00:00Z,26.4345,-81.9647,2.281,6.46,1111122 
SCCF RECON,ioos:station:SCCF:16:1,2009-01-04T18:00:00Z,26.4345,-81.9647,2.312,6.48,1111122 
SCCF RECON,ioos:station:SCCF:16:1,2009-01-04T19:00:00Z,26.4345,-81.9647,2.4,6.49,1111122 
SCCF RECON,ioos:station:SCCF:16:1,2009-01-04T20:00:00Z,26.4345,-81.9647,2.515,6.65,1111122 
SCCF RECON,ioos:station:SCCF:16:1,2009-01-04T21:00:00Z,26.4345,-81.9647,2.617,6.94,1111122 
SCCF RECON,ioos:station:SCCF:16:1,2009-01-04T22:00:00Z,26.4345,-81.9647,2.682,7.06,1111122 
SCCF RECON,ioos:station:SCCF:16:1,2009-01-04T23:00:00Z,26.4345,-81.9647,2.682,7.07,1111122 
SCCF RECON,ioos:station:SCCF:16:1,2009-01-05T00:00:00Z,26.4345,-81.9647,2.616,6.92,1111122 
SCCF RECON,ioos:station:SCCF:16:1,2009-01-05T01:00:00Z,26.4345,-81.9647,2.504,6.9,1111122 
SCCF RECON,ioos:station:SCCF:16:1,2009-01-05T02:00:00Z,26.4345,-81.9647,2.343,6.84,1111122 
SCCF RECON,ioos:station:SCCF:16:1,2009-01-05T03:00:00Z,26.4345,-81.9647,2.24,6.69,1111122 
SCCF RECON,ioos:station:SCCF:16:1,2009-01-05T04:00:00Z,26.4345,-81.9647,2.122,6.39,1111122 
SCCF RECON,ioos:station:SCCF:16:1,2009-01-05T05:00:00Z,26.4345,-81.9647,2.016,6.37,1111122 
SCCF RECON,ioos:station:SCCF:16:1,2009-01-05T06:00:00Z,26.4345,-81.9647,1.976,6.42,1111122 
SCCF RECON,ioos:station:SCCF:16:1,2009-01-05T07:00:00Z,26.4345,-81.9647,1.996,6.4,1111122 
SCCF RECON,ioos:station:SCCF:16:1,2009-01-05T08:00:00Z,26.4345,-81.9647,2.111,6.41,1111122 
SCCF RECON,ioos:station:SCCF:16:1,2009-01-05T09:00:00Z,26.4345,-81.9647,2.211,6.44,1111122 
SCCF RECON,ioos:station:SCCF:16:1,2009-01-05T10:00:00Z,26.4345,-81.9647,2.311,6.47,1111122 
SCCF RECON,ioos:station:SCCF:16:1,2009-01-05T11:00:00Z,26.4345,-81.9647,2.373,6.41,1111122 
SCCF RECON,ioos:station:SCCF:16:1,2009-01-05T12:00:00Z,26.4345,-81.9647,2.416,6.43,1111122 
SCCF RECON,ioos:station:SCCF:16:1,2009-01-05T13:00:00Z,26.4345,-81.9647,2.413,6.38,1111122 
SCCF RECON,ioos:station:SCCF:16:1,2009-01-05T14:00:00Z,26.4345,-81.9647,2.4,6.4,1111122 
SCCF RECON,ioos:station:SCCF:16:1,2009-01-05T15:00:00Z,26.4345,-81.9647,2.383,6.38,1111122 
SCCF RECON,ioos:station:SCCF:16:1,2009-01-05T16:00:00Z,26.4345,-81.9647,2.36,6.45,1111122 
SCCF RECON,ioos:station:SCCF:16:1,2009-01-05T17:00:00Z,26.4345,-81.9647,2.327,6.46,1111122 
SCCF RECON,ioos:station:SCCF:16:1,2009-01-05T18:00:00Z,26.4345,-81.9647,2.349,6.73,1111122 
SCCF RECON,ioos:station:SCCF:16:1,2009-01-05T19:00:00Z,26.4345,-81.9647,2.392,6.85,1111122 
SCCF RECON,ioos:station:SCCF:16:1,2009-01-05T20:00:00Z,26.4345,-81.9647,2.475,6.83,1111122 
SCCF RECON,ioos:station:SCCF:16:1,2009-01-05T21:00:00Z,26.4345,-81.9647,2.598,6.96,1111122 
SCCF RECON,ioos:station:SCCF:16:1,2009-01-05T22:00:00Z,26.4345,-81.9647,2.668,7.18,1111122 
SCCF RECON,ioos:station:SCCF:16:1,2009-01-05T23:00:00Z,26.4345,-81.9647,2.694,7.18,1111122 
SCCF RECON,ioos:station:SCCF:16:1,2009-01-06T00:00:00Z,26.4345,-81.9647,2.69,7.08,1111122 
SCCF RECON,ioos:station:SCCF:16:1,2009-01-06T01:00:00Z,26.4345,-81.9647,2.64,7.06,1111122 
SCCF RECON,ioos:station:SCCF:16:1,2009-01-06T02:00:00Z,26.4345,-81.9647,2.52,6.99,1111122 
SCCF RECON,ioos:station:SCCF:16:1,2009-01-06T03:00:00Z,26.4345,-81.9647,2.398,6.97,1111122 
SCCF RECON,ioos:station:SCCF:16:1,2009-01-06T04:00:00Z,26.4345,-81.9647,2.216,6.87,1111122 
SCCF RECON,ioos:station:SCCF:16:1,2009-01-06T05:00:00Z,26.4345,-81.9647,2.083,6.57,1111122 
SCCF RECON,ioos:station:SCCF:16:1,2009-01-06T06:00:00Z,26.4345,-81.9647,1.938,6.41,1111122 
SCCF RECON,ioos:station:SCCF:16:1,2009-01-06T07:00:00Z,26.4345,-81.9647,1.856,6.49,1111122 
SCCF RECON,ioos:station:SCCF:16:1,2009-01-06T08:00:00Z,26.4345,-81.9647,1.906,6.43,1111122 
SCCF RECON,ioos:station:SCCF:16:1,2009-01-06T09:00:00Z,26.4345,-81.9647,2.043,6.4,1111122 
SCCF RECON,ioos:station:SCCF:16:1,2009-01-06T10:00:00Z,26.4345,-81.9647,2.191,6.43,1111122 
SCCF RECON,ioos:station:SCCF:16:1,2009-01-06T11:00:00Z,26.4345,-81.9647,2.284,6.52,1111122 
SCCF RECON,ioos:station:SCCF:16:1,2009-01-06T12:00:00Z,26.4345,-81.9647,2.348,6.49,1111122 
SCCF RECON,ioos:station:SCCF:16:1,2009-01-06T13:00:00Z,26.4345,-81.9647,2.417,6.51,1111122 
SCCF RECON,ioos:station:SCCF:16:1,2009-01-06T14:00:00Z,26.4345,-81.9647,2.451,6.54,1111122 
SCCF RECON,ioos:station:SCCF:16:1,2009-01-06T15:00:00Z,26.4345,-81.9647,2.463,6.53,1111122 
SCCF RECON,ioos:station:SCCF:16:1,2009-01-06T16:00:00Z,26.4345,-81.9647,2.45,6.63,1111122 
SCCF RECON,ioos:station:SCCF:16:1,2009-01-06T17:00:00Z,26.4345,-81.9647,2.415,6.58,1111122 
SCCF RECON,ioos:station:SCCF:16:1,2009-01-06T18:00:00Z,26.4345,-81.9647,2.396,6.63,1111122 
SCCF RECON,ioos:station:SCCF:16:1,2009-01-06T19:00:00Z,26.4345,-81.9647,2.385,6.78,1111122 
SCCF RECON,ioos:station:SCCF:16:1,2009-01-06T20:00:00Z,26.4345,-81.9647,2.45,6.86,1111122 
SCCF RECON,ioos:station:SCCF:16:1,2009-01-06T21:00:00Z,26.4345,-81.9647,2.564,6.98,1111122 
SCCF RECON,ioos:station:SCCF:16:1,2009-01-06T22:00:00Z,26.4345,-81.9647,2.632,7.03,1111122 
SCCF RECON,ioos:station:SCCF:16:1,2009-01-06T23:00:00Z,26.4345,-81.9647,2.7,7.05,1111122 
SCCF RECON,ioos:station:SCCF:16:1,2009-01-07T00:00:00Z,26.4345,-81.9647,2.719,7.03,1111122 
SCCF RECON,ioos:station:SCCF:16:1,2009-01-07T01:00:00Z,26.4345,-81.9647,2.703,6.99,1111122 
SCCF RECON,ioos:station:SCCF:16:1,2009-01-07T02:00:00Z,26.4345,-81.9647,2.701,6.94,1111122 
SCCF RECON,ioos:station:SCCF:16:1,2009-01-07T03:00:00Z,26.4345,-81.9647,2.59,6.84,1111122 
SCCF RECON,ioos:station:SCCF:16:1,2009-01-07T04:00:00Z,26.4345,-81.9647,2.432,6.79,1111122 
SCCF RECON,ioos:station:SCCF:16:1,2009-01-07T05:00:00Z,26.4345,-81.9647,2.258,6.73,1111122 
SCCF RECON,ioos:station:SCCF:16:1,2009-01-07T06:00:00Z,26.4345,-81.9647,2.068,6.64,1111122 
SCCF RECON,ioos:station:SCCF:16:1,2009-01-07T07:00:00Z,26.4345,-81.9647,1.873,6.55,1111122 
SCCF RECON,ioos:station:SCCF:16:1,2009-01-07T08:00:00Z,26.4345,-81.9647,1.794,6.4,1111122 
SCCF RECON,ioos:station:SCCF:16:1,2009-01-07T09:00:00Z,26.4345,-81.9647,1.849,6.36,1111122 
SCCF RECON,ioos:station:SCCF:16:1,2009-01-07T10:00:00Z,26.4345,-81.9647,2.038,6.3,1111122 
SCCF RECON,ioos:station:SCCF:16:1,2009-01-07T11:00:00Z,26.4345,-81.9647,2.174,6.34,1111122 
SCCF RECON,ioos:station:SCCF:16:1,2009-01-07T12:00:00Z,26.4345,-81.9647,2.257,6.4,1111122 
SCCF RECON,ioos:station:SCCF:16:1,2009-01-07T13:00:00Z,26.4345,-81.9647,2.418,6.45,1111122 
SCCF RECON,ioos:station:SCCF:16:1,2009-01-07T14:00:00Z,26.4345,-81.9647,2.515,6.43,1111122 
SCCF RECON,ioos:station:SCCF:16:1,2009-01-07T15:00:00Z,26.4345,-81.9647,2.547,6.43,1111122 
SCCF RECON,ioos:station:SCCF:16:1,2009-01-07T16:00:00Z,26.4345,-81.9647,2.547,6.41,1111122 
SCCF RECON,ioos:station:SCCF:16:1,2009-01-07T17:00:00Z,26.4345,-81.9647,2.484,6.48,1111122 
SCCF RECON,ioos:station:SCCF:16:1,2009-01-07T18:00:00Z,26.4345,-81.9647,2.447,6.43,1111122 
SCCF RECON,ioos:station:SCCF:16:1,2009-01-07T19:00:00Z,26.4345,-81.9647,2.418,6.47,1111122 
SCCF RECON,ioos:station:SCCF:16:1,2009-01-07T20:00:00Z,26.4345,-81.9647,2.427,6.53,1111122 
SCCF RECON,ioos:station:SCCF:16:1,2009-01-07T21:00:00Z,26.4345,-81.9647,2.363,6.53,1111122 
SCCF RECON,ioos:station:SCCF:16:1,2009-01-07T22:00:00Z,26.4345,-81.9647,2.392,6.63,1111122 
SCCF RECON,ioos:station:SCCF:16:1,2009-01-07T23:00:00Z,26.4345,-81.9647,2.443,6.63,1111122 
SCCF RECON,ioos:station:SCCF:16:1,2009-01-08T00:00:00Z,26.4345,-81.9647,2.527,6.63,1111122 
SCCF RECON,ioos:station:SCCF:16:1,2009-01-08T01:00:00Z,26.4345,-81.9647,2.567,6.6,1111122 
SCCF RECON,ioos:station:SCCF:16:1,2009-01-08T02:00:00Z,26.4345,-81.9647,2.604,6.52,1111122 
SCCF RECON,ioos:station:SCCF:16:1,2009-01-08T03:00:00Z,26.4345,-81.9647,2.616,6.58,1111122 
SCCF RECON,ioos:station:SCCF:16:1,2009-01-08T04:00:00Z,26.4345,-81.9647,2.448,6.5,1111122 
SCCF RECON,ioos:station:SCCF:16:1,2009-01-08T05:00:00Z,26.4345,-81.9647,2.164,6.33,1111122 
SCCF RECON,ioos:station:SCCF:16:1,2009-01-08T06:00:00Z,26.4345,-81.9647,1.964,6.27,1111122 
SCCF RECON,ioos:station:SCCF:16:1,2009-01-08T07:00:00Z,26.4345,-81.9647,1.768,6.24,1111122 
SCCF RECON,ioos:station:SCCF:16:1,2009-01-08T08:00:00Z,26.4345,-81.9647,1.64,6.19,1111122 
SCCF RECON,ioos:station:SCCF:16:1,2009-01-08T09:00:00Z,26.4345,-81.9647,1.598,6.07,1111122 
SCCF RECON,ioos:station:SCCF:16:1,2009-01-08T10:00:00Z,26.4345,-81.9647,1.667,6.18,1111122 
SCCF RECON,ioos:station:SCCF:16:1,2009-01-08T11:00:00Z,26.4345,-81.9647,1.83,6.23,1111122 
SCCF RECON,ioos:station:SCCF:16:1,2009-01-08T12:00:00Z,26.4345,-81.9647,2.04,5.95,1111122 
SCCF RECON,ioos:station:SCCF:16:1,2009-01-08T13:00:00Z,26.4345,-81.9647,2.229,6.16,1111122 
SCCF RECON,ioos:station:SCCF:16:1,2009-01-08T14:00:00Z,26.4345,-81.9647,2.364,6.19,1111122 
SCCF RECON,ioos:station:SCCF:16:1,2009-01-08T15:00:00Z,26.4345,-81.9647,2.507,6.28,1111122 
SCCF RECON,ioos:station:SCCF:16:1,2009-01-08T16:00:00Z,26.4345,-81.9647,2.555,6.31,1111122 
SCCF RECON,ioos:station:SCCF:16:1,2009-01-08T17:00:00Z,26.4345,-81.9647,2.502,6.48,1111122 
SCCF RECON,ioos:station:SCCF:16:1,2009-01-08T18:00:00Z,26.4345,-81.9647,2.417,6.52,1111122 
SCCF RECON,ioos:station:SCCF:16:1,2009-01-08T19:00:00Z,26.4345,-81.9647,2.367,6.53,1111122 
SCCF RECON,ioos:station:SCCF:16:1,2009-01-08T20:00:00Z,26.4345,-81.9647,2.366,6.73,1111122 
SCCF RECON,ioos:station:SCCF:16:1,2009-01-08T21:00:00Z,26.4345,-81.9647,2.371,6.85,1111122 
SCCF RECON,ioos:station:SCCF:16:1,2009-01-08T22:00:00Z,26.4345,-81.9647,2.458,6.74,1111122 
SCCF RECON,ioos:station:SCCF:16:1,2009-01-08T23:00:00Z,26.4345,-81.9647,2.546,6.77,1111122 
SCCF RECON,ioos:station:SCCF:16:1,2009-01-09T00:00:00Z,26.4345,-81.9647,2.609,6.63,1111122 
SCCF RECON,ioos:station:SCCF:16:1,2009-01-09T01:00:00Z,26.4345,-81.9647,2.648,6.63,1111122 
SCCF RECON,ioos:station:SCCF:16:1,2009-01-09T02:00:00Z,26.4345,-81.9647,2.714,6.6,1111122 
SCCF RECON,ioos:station:SCCF:16:1,2009-01-09T03:00:00Z,26.4345,-81.9647,2.72,6.61,1111122 
SCCF RECON,ioos:station:SCCF:16:1,2009-01-09T04:00:00Z,26.4345,-81.9647,2.664,6.54,1111122 
SCCF RECON,ioos:station:SCCF:16:1,2009-01-09T05:00:00Z,26.4345,-81.9647,2.482,6.46,1111122 
SCCF RECON,ioos:station:SCCF:16:1,2009-01-09T06:00:00Z,26.4345,-81.9647,2.196,6.41,1111122 
SCCF RECON,ioos:station:SCCF:16:1,2009-01-09T07:00:00Z,26.4345,-81.9647,1.945,6.16,1111122 
SCCF RECON,ioos:station:SCCF:16:1,2009-01-09T08:00:00Z,26.4345,-81.9647,1.734,6.07,1111122 
SCCF RECON,ioos:station:SCCF:16:1,2009-01-09T09:00:00Z,26.4345,-81.9647,1.53,6.06,1111122 
SCCF RECON,ioos:station:SCCF:16:1,2009-01-09T10:00:00Z,26.4345,-81.9647,1.452,6.03,1111122 
SCCF RECON,ioos:station:SCCF:16:1,2009-01-09T11:00:00Z,26.4345,-81.9647,1.589,6.05,1111122 
SCCF RECON,ioos:station:SCCF:16:1,2009-01-09T12:00:00Z,26.4345,-81.9647,1.808,5.99,1111122 
SCCF RECON,ioos:station:SCCF:16:1,2009-01-09T13:00:00Z,26.4345,-81.9647,2.009,5.93,1111122 
SCCF RECON,ioos:station:SCCF:16:1,2009-01-09T14:00:00Z,26.4345,-81.9647,2.169,6.08,1111122 
SCCF RECON,ioos:station:SCCF:16:1,2009-01-09T15:00:00Z,26.4345,-81.9647,2.332,6.16,1111122 
SCCF RECON,ioos:station:SCCF:16:1,2009-01-09T16:00:00Z,26.4345,-81.9647,2.458,6.21,1111122 
SCCF RECON,ioos:station:SCCF:16:1,2009-01-09T17:00:00Z,26.4345,-81.9647,2.468,6.34,1111122 
SCCF RECON,ioos:station:SCCF:16:1,2009-01-09T18:00:00Z,26.4345,-81.9647,2.377,6.4,1111122 
SCCF RECON,ioos:station:SCCF:16:1,2009-01-09T19:00:00Z,26.4345,-81.9647,2.304,6.57,1111122 
SCCF RECON,ioos:station:SCCF:16:1,2009-01-09T20:00:00Z,26.4345,-81.9647,2.311,6.59,1111122 
SCCF RECON,ioos:station:SCCF:16:1,2009-01-09T21:00:00Z,26.4345,-81.9647,2.322,6.71,1111122 
SCCF RECON,ioos:station:SCCF:16:1,2009-01-09T22:00:00Z,26.4345,-81.9647,2.33,6.66,1111122 
SCCF RECON,ioos:station:SCCF:16:1,2009-01-09T23:00:00Z,26.4345,-81.9647,2.415,6.71,1111122 
SCCF RECON,ioos:station:SCCF:16:1,2009-01-10T00:00:00Z,26.4345,-81.9647,2.554,6.79,1111122 
SCCF RECON,ioos:station:SCCF:16:1,2009-01-10T01:00:00Z,26.4345,-81.9647,2.677,6.79,1111122 
SCCF RECON,ioos:station:SCCF:16:1,2009-01-10T02:00:00Z,26.4345,-81.9647,2.75,6.61,1111122 
SCCF RECON,ioos:station:SCCF:16:1,2009-01-10T03:00:00Z,26.4345,-81.9647,2.806,6.61,1111122 
SCCF RECON,ioos:station:SCCF:16:1,2009-01-10T04:00:00Z,26.4345,-81.9647,2.845,6.6,1111122 
SCCF RECON,ioos:station:SCCF:16:1,2009-01-10T05:00:00Z,26.4345,-81.9647,2.754,6.53,1111122 
SCCF RECON,ioos:station:SCCF:16:1,2009-01-10T06:00:00Z,26.4345,-81.9647,2.528,6.47,1111122 
SCCF RECON,ioos:station:SCCF:16:1,2009-01-10T07:00:00Z,26.4345,-81.9647,2.258,6.44,1111122 
SCCF RECON,ioos:station:SCCF:16:1,2009-01-10T08:00:00Z,26.4345,-81.9647,2.034,6.36,1111122 
SCCF RECON,ioos:station:SCCF:16:1,2009-01-10T09:00:00Z,26.4345,-81.9647,1.77,6.16,1111122 
SCCF RECON,ioos:station:SCCF:16:1,2009-01-10T10:00:00Z,26.4345,-81.9647,1.549,6.09,1111122 
SCCF RECON,ioos:station:SCCF:16:1,2009-01-10T11:00:00Z,26.4345,-81.9647,1.484,6.0,1111122 
SCCF RECON,ioos:station:SCCF:16:1,2009-01-10T12:00:00Z,26.4345,-81.9647,1.645,6.04,1111122 
SCCF RECON,ioos:station:SCCF:16:1,2009-01-10T13:00:00Z,26.4345,-81.9647,1.952,6.05,1111122 
SCCF RECON,ioos:station:SCCF:16:1,2009-01-10T14:00:00Z,26.4345,-81.9647,2.171,6.07,1111122 
SCCF RECON,ioos:station:SCCF:16:1,2009-01-10T15:00:00Z,26.4345,-81.9647,2.329,6.16,1111122 
SCCF RECON,ioos:station:SCCF:16:1,2009-01-10T16:00:00Z,26.4345,-81.9647,2.452,6.23,1111122 
SCCF RECON,ioos:station:SCCF:16:1,2009-01-10T17:00:00Z,26.4345,-81.9647,2.526,6.35,1111122 
SCCF RECON,ioos:station:SCCF:16:1,2009-01-10T18:00:00Z,26.4345,-81.9647,2.511,6.39,1111122 
SCCF RECON,ioos:station:SCCF:16:1,2009-01-10T19:00:00Z,26.4345,-81.9647,2.42,6.33,1111122 
SCCF RECON,ioos:station:SCCF:16:1,2009-01-10T20:00:00Z,26.4345,-81.9647,2.371,6.23,1111122 
SCCF RECON,ioos:station:SCCF:16:1,2009-01-10T21:00:00Z,26.4345,-81.9647,2.378,6.33,1111122 
SCCF RECON,ioos:station:SCCF:16:1,2009-01-10T22:00:00Z,26.4345,-81.9647,2.373,6.39,1111122 
SCCF RECON,ioos:station:SCCF:16:1,2009-01-10T23:00:00Z,26.4345,-81.9647,2.363,6.28,1111122 
SCCF RECON,ioos:station:SCCF:16:1,2009-01-11T00:00:00Z,26.4345,-81.9647,2.46,6.35,1111122 
SCCF RECON,ioos:station:SCCF:16:1,2009-01-11T01:00:00Z,26.4345,-81.9647,2.587,6.52,1111122 
SCCF RECON,ioos:station:SCCF:16:1,2009-01-11T02:00:00Z,26.4345,-81.9647,2.757,6.52,1111122 
SCCF RECON,ioos:station:SCCF:16:1,2009-01-11T03:00:00Z,26.4345,-81.9647,2.857,6.5,1111122 
SCCF RECON,ioos:station:SCCF:16:1,2009-01-11T04:00:00Z,26.4345,-81.9647,2.931,6.48,1111122 
SCCF RECON,ioos:station:SCCF:16:1,2009-01-11T05:00:00Z,26.4345,-81.9647,2.913,6.43,1111122 
SCCF RECON,ioos:station:SCCF:16:1,2009-01-11T06:00:00Z,26.4345,-81.9647,2.777,6.32,1111122 
SCCF RECON,ioos:station:SCCF:16:1,2009-01-11T07:00:00Z,26.4345,-81.9647,2.555,6.33,1111122 
SCCF RECON,ioos:station:SCCF:16:1,2009-01-11T08:00:00Z,26.4345,-81.9647,2.251,6.17,1111122 
SCCF RECON,ioos:station:SCCF:16:1,2009-01-11T09:00:00Z,26.4345,-81.9647,2.006,6.12,1111122 
SCCF RECON,ioos:station:SCCF:16:1,2009-01-11T10:00:00Z,26.4345,-81.9647,1.738,6.21,1111122 
SCCF RECON,ioos:station:SCCF:16:1,2009-01-11T11:00:00Z,26.4345,-81.9647,1.542,6.17,1111122 
SCCF RECON,ioos:station:SCCF:16:1,2009-01-11T12:00:00Z,26.4345,-81.9647,1.506,6.06,1111122 
SCCF RECON,ioos:station:SCCF:16:1,2009-01-11T13:00:00Z,26.4345,-81.9647,1.722,6.06,1111122 
SCCF RECON,ioos:station:SCCF:16:1,2009-01-11T14:00:00Z,26.4345,-81.9647,2.059,5.95,1111122 
SCCF RECON,ioos:station:SCCF:16:1,2009-01-11T15:00:00Z,26.4345,-81.9647,2.256,6.3,1111122 
SCCF RECON,ioos:station:SCCF:16:1,2009-01-11T16:00:00Z,26.4345,-81.9647,2.393,6.32,1111122 
SCCF RECON,ioos:station:SCCF:16:1,2009-01-11T17:00:00Z,26.4345,-81.9647,2.519,6.48,1111122 
SCCF RECON,ioos:station:SCCF:16:1,2009-01-11T18:00:00Z,26.4345,-81.9647,2.543,6.54,1111122 
SCCF RECON,ioos:station:SCCF:16:1,2009-01-11T19:00:00Z,26.4345,-81.9647,2.523,6.58,1111122 